When you browse on this site, cookies collect data to enhance your experience and personalize the content and advertising you see.
Visit our Privacy Policy to learn more. By continuing to use the site, you agree to this use of cookies and data.
  • en France
  • Liste des pays
  • À 7 jours
  • Température de l'eau
  • Carte météo
  • Widgets météo
  • user-avatar
    Se connecter

    Météo par heure à Arteaga

    Ce jour, 23 Octobre, Mercredi

    Heure Température Précipitation Vent Pression Humidité
    00:00 +18°C° 1.1 mm 0 m/s 659 mmHg 94%
    01:00 +18°C° 1.1 mm 0 m/s 659 mmHg 94%
    02:00 +18°C° 1.1 mm 0 m/s 659 mmHg 94%
    03:00 +20°C° 0.6 mm 1 m/s 659 mmHg 94%
    04:00 +19°C° 0.6 mm 1 m/s 658 mmHg 94%
    05:00 +19°C° 0.6 mm 1 m/s 658 mmHg 94%
    06:00 +20°C° 0.2 mm 1 m/s 659 mmHg 93%
    07:00 +21°C° 0.2 mm 1 m/s 660 mmHg 91%
    08:00 +22°C° 0.2 mm 1 m/s 660 mmHg 90%
    09:00 +23°C° 1.1 mm 1 m/s 660 mmHg 86%
    10:00 +24°C° 1.1 mm 1 m/s 660 mmHg 83%
    11:00 +25°C° 1.1 mm 1 m/s 660 mmHg 80%
    12:00 +25°C° 0.6 mm 1 m/s 660 mmHg 79%
    13:00 +25°C° 0.6 mm 1 m/s 659 mmHg 78%
    14:00 +25°C° 0.6 mm 1 m/s 658 mmHg 77%
    15:00 +24°C° 0.8 mm 1 m/s 658 mmHg 81%
    16:00 +23°C° 0.8 mm 1 m/s 658 mmHg 85%
    17:00 +21°C° 0.8 mm 1 m/s 657 mmHg 88%
    18:00 +21°C° 0.7 mm 1 m/s 658 mmHg 88%
    19:00 +20°C° 0.7 mm 1 m/s 658 mmHg 87%
    20:00 +20°C° 0.7 mm 1 m/s 659 mmHg 87%
    21:00 +18°C° 0.4 mm 0 m/s 659 mmHg 87%
    22:00 +18°C° 0.4 mm 0 m/s 659 mmHg 87%
    23:00 +18°C° 0.4 mm 0 m/s 659 mmHg 88%

    Demain, 24 Octobre, Jeudi

    Heure Température Précipitation Vent Pression Humidité
    00:00 +17°C° 0.2 mm 0 m/s 658 mmHg 89%
    01:00 +17°C° 0.2 mm 0 m/s 658 mmHg 89%
    02:00 +19°C° 0.2 mm 1 m/s 658 mmHg 90%
    03:00 +19°C° 0 mm 1 m/s 657 mmHg 90%
    04:00 +19°C° 0 mm 1 m/s 657 mmHg 90%
    05:00 +18°C° 0 mm 1 m/s 657 mmHg 90%
    06:00 +18°C° 0 mm 0 m/s 658 mmHg 87%
    07:00 +20°C° 0 mm 0 m/s 659 mmHg 84%
    08:00 +21°C° 0 mm 0 m/s 660 mmHg 81%
    09:00 +22°C° 0.3 mm 0 m/s 660 mmHg 78%
    10:00 +25°C° 0.3 mm 1 m/s 660 mmHg 75%
    11:00 +26°C° 0.3 mm 1 m/s 660 mmHg 72%
    12:00 +26°C° 1.8 mm 1 m/s 659 mmHg 77%
    13:00 +25°C° 1.8 mm 1 m/s 659 mmHg 81%
    14:00 +24°C° 1.8 mm 1 m/s 658 mmHg 86%
    15:00 +23°C° 0.7 mm 1 m/s 658 mmHg 89%
    16:00 +23°C° 0.7 mm 1 m/s 657 mmHg 92%
    17:00 +22°C° 0.7 mm 1 m/s 657 mmHg 95%
    18:00 +21°C° 0.3 mm 1 m/s 658 mmHg 95%
    19:00 +21°C° 0.3 mm 1 m/s 658 mmHg 96%
    20:00 +20°C° 0.3 mm 1 m/s 658 mmHg 97%
    21:00 +20°C° 0.2 mm 1 m/s 658 mmHg 97%
    22:00 +20°C° 0.2 mm 1 m/s 658 mmHg 97%
    23:00 +19°C° 0.2 mm 1 m/s 658 mmHg 97%

    Après-demain, 25 Octobre, Vendredi

    Heure Température Précipitation Vent Pression Humidité
    00:00 +19°C° 0.3 mm 1 m/s 658 mmHg 97%
    01:00 +17°C° 0.3 mm 0 m/s 658 mmHg 97%
    02:00 +17°C° 0.3 mm 0 m/s 657 mmHg 96%
    03:00 +17°C° 0.4 mm 0 m/s 657 mmHg 96%
    04:00 +17°C° 0.4 mm 0 m/s 658 mmHg 96%
    05:00 +17°C° 0.4 mm 0 m/s 658 mmHg 96%
    06:00 +18°C° 0.1 mm 0 m/s 658 mmHg 93%
    07:00 +19°C° 0.1 mm 0 m/s 659 mmHg 91%
    08:00 +20°C° 0.1 mm 0 m/s 660 mmHg 89%
    09:00 +21°C° 0.1 mm 0 m/s 660 mmHg 84%
    10:00 +23°C° 0.1 mm 0 m/s 660 mmHg 79%
    11:00 +26°C° 0.1 mm 1 m/s 660 mmHg 74%
    12:00 +26°C° 0.9 mm 1 m/s 659 mmHg 77%
    13:00 +25°C° 0.9 mm 1 m/s 659 mmHg 80%
    14:00 +25°C° 0.9 mm 1 m/s 658 mmHg 83%
    15:00 +24°C° 0.8 mm 1 m/s 658 mmHg 87%
    16:00 +23°C° 0.8 mm 1 m/s 657 mmHg 91%
    17:00 +22°C° 0.8 mm 1 m/s 657 mmHg 95%
    18:00 +21°C° 0.5 mm 1 m/s 658 mmHg 96%
    19:00 +21°C° 0.5 mm 1 m/s 658 mmHg 97%
    20:00 +20°C° 0.5 mm 1 m/s 658 mmHg 97%
    21:00 +20°C° 0.8 mm 1 m/s 658 mmHg 97%
    22:00 +20°C° 0.8 mm 1 m/s 658 mmHg 97%
    23:00 +20°C° 0.8 mm 1 m/s 658 mmHg 97%

    26 Octobre, Samedi

    Heure Température Précipitation Vent Pression Humidité
    00:00 +20°C° 1.1 mm 1 m/s 658 mmHg 98%
    01:00 +18°C° 1.1 mm 0 m/s 658 mmHg 98%
    02:00 +17°C° 1.1 mm 0 m/s 658 mmHg 98%
    03:00 +17°C° 0.4 mm 0 m/s 658 mmHg 98%
    04:00 +17°C° 0.4 mm 0 m/s 658 mmHg 98%
    05:00 +17°C° 0.4 mm 0 m/s 658 mmHg 97%
    06:00 +18°C° 0 mm 0 m/s 658 mmHg 95%
    07:00 +19°C° 0 mm 0 m/s 659 mmHg 93%
    08:00 +20°C° 0 mm 0 m/s 660 mmHg 90%
    09:00 +21°C° 0.2 mm 0 m/s 660 mmHg 86%
    10:00 +24°C° 0.2 mm 1 m/s 660 mmHg 83%
    11:00 +25°C° 0.2 mm 1 m/s 660 mmHg 79%
    12:00 +25°C° 1.3 mm 1 m/s 660 mmHg 81%
    13:00 +25°C° 1.3 mm 1 m/s 659 mmHg 84%
    14:00 +24°C° 1.3 mm 1 m/s 658 mmHg 86%
    15:00 +23°C° 0.8 mm 1 m/s 658 mmHg 89%
    16:00 +22°C° 0.8 mm 1 m/s 658 mmHg 92%
    17:00 +21°C° 0.8 mm 1 m/s 658 mmHg 96%
    18:00 +21°C° 0.3 mm 1 m/s 658 mmHg 96%
    19:00 +20°C° 0.3 mm 1 m/s 658 mmHg 97%
    20:00 +20°C° 0.3 mm 1 m/s 659 mmHg 98%
    21:00 +20°C° 0.1 mm 1 m/s 659 mmHg 97%
    22:00 +19°C° 0.1 mm 1 m/s 659 mmHg 97%
    23:00 +19°C° 0.1 mm 1 m/s 659 mmHg 97%

    27 Octobre, Dimanche

    Heure Température Précipitation Vent Pression Humidité
    00:00 +17°C° 0 mm 0 m/s 659 mmHg 97%
    01:00 +17°C° 0 mm 0 m/s 658 mmHg 96%
    02:00 +17°C° 0 mm 0 m/s 658 mmHg 96%
    03:00 +16°C° 0 mm 0 m/s 658 mmHg 96%
    04:00 +16°C° 0 mm 0 m/s 658 mmHg 96%
    05:00 +16°C° 0 mm 0 m/s 658 mmHg 96%
    06:00 +17°C° 0 mm 0 m/s 659 mmHg 93%
    07:00 +19°C° 0 mm 0 m/s 659 mmHg 91%
    08:00 +20°C° 0 mm 0 m/s 660 mmHg 88%
    09:00 +21°C° 0.1 mm 0 m/s 660 mmHg 83%
    10:00 +24°C° 0.1 mm 1 m/s 660 mmHg 78%
    11:00 +26°C° 0.1 mm 1 m/s 660 mmHg 72%
    12:00 +26°C° 0.2 mm 1 m/s 660 mmHg 75%
    13:00 +25°C° 0.2 mm 1 m/s 659 mmHg 77%
    14:00 +25°C° 0.2 mm 1 m/s 658 mmHg 79%
    15:00 +24°C° 0.3 mm 1 m/s 658 mmHg 84%
    16:00 +23°C° 0.3 mm 1 m/s 658 mmHg 89%
    17:00 +22°C° 0.3 mm 1 m/s 658 mmHg 94%
    18:00 +21°C° 0 mm 1 m/s 658 mmHg 95%
    19:00 +19°C° 0 mm 0 m/s 658 mmHg 96%
    20:00 +18°C° 0 mm 0 m/s 659 mmHg 97%
    21:00 +18°C° 0 mm 0 m/s 659 mmHg 97%
    22:00 +17°C° 0 mm 0 m/s 659 mmHg 96%
    23:00 +17°C° 0 mm 0 m/s 658 mmHg 96%

    28 Octobre, Lundi

    Heure Température Précipitation Vent Pression Humidité
    00:00 +17°C° 0 mm 0 m/s 658 mmHg 96%
    01:00 +17°C° 0 mm 0 m/s 658 mmHg 96%
    02:00 +16°C° 0 mm 0 m/s 658 mmHg 96%
    03:00 +18°C° 0 mm 1 m/s 658 mmHg 96%
    04:00 +18°C° 0 mm 1 m/s 658 mmHg 96%
    05:00 +18°C° 0 mm 1 m/s 657 mmHg 96%
    06:00 +20°C° 0 mm 1 m/s 658 mmHg 93%
    07:00 +19°C° 0 mm 0 m/s 659 mmHg 90%
    08:00 +20°C° 0 mm 0 m/s 660 mmHg 87%
    09:00 +24°C° 0 mm 1 m/s 660 mmHg 80%
    10:00 +25°C° 0 mm 1 m/s 660 mmHg 73%
    11:00 +27°C° 0 mm 1 m/s 661 mmHg 66%
    12:00 +27°C° 0.1 mm 1 m/s 660 mmHg 68%
    13:00 +26°C° 0.1 mm 1 m/s 659 mmHg 71%
    14:00 +26°C° 0.1 mm 1 m/s 658 mmHg 73%
    15:00 +25°C° 0.1 mm 1 m/s 658 mmHg 80%
    16:00 +23°C° 0.1 mm 1 m/s 658 mmHg 87%
    17:00 +22°C° 0.1 mm 1 m/s 657 mmHg 93%
    18:00 +22°C° 0 mm 1 m/s 658 mmHg 94%
    19:00 +21°C° 0 mm 1 m/s 658 mmHg 96%
    20:00 +20°C° 0 mm 1 m/s 659 mmHg 97%
    21:00 +20°C° 0 mm 1 m/s 659 mmHg 97%
    22:00 +20°C° 0 mm 1 m/s 659 mmHg 96%
    23:00 +19°C° 0 mm 1 m/s 659 mmHg 96%

    29 Octobre, Mardi

    Heure Température Précipitation Vent Pression Humidité
    00:00 +19°C° 0 mm 1 m/s 659 mmHg 95%
    01:00 +19°C° 0 mm 1 m/s 658 mmHg 94%
    02:00 +16°C° 0 mm 0 m/s 658 mmHg 93%
    03:00 +18°C° 0 mm 1 m/s 658 mmHg 92%
    04:00 +18°C° 0 mm 1 m/s 658 mmHg 92%
    05:00 +18°C° 0 mm 1 m/s 658 mmHg 91%
    06:00 +20°C° 0 mm 1 m/s 659 mmHg 87%
    07:00 +21°C° 0 mm 1 m/s 660 mmHg 84%
    08:00 +23°C° 0 mm 1 m/s 661 mmHg 80%
    09:00 +24°C° 0 mm 1 m/s 661 mmHg 74%
    10:00 +26°C° 0 mm 1 m/s 661 mmHg 68%
    11:00 +27°C° 0 mm 1 m/s 661 mmHg 61%
    12:00 +27°C° 0.4 mm 1 m/s 661 mmHg 65%
    13:00 +26°C° 0.4 mm 1 m/s 660 mmHg 68%
    14:00 +26°C° 0.4 mm 1 m/s 659 mmHg 72%
    15:00 +25°C° 0.5 mm 1 m/s 659 mmHg 78%
    16:00 +23°C° 0.5 mm 1 m/s 659 mmHg 85%
    17:00 +22°C° 0.5 mm 1 m/s 658 mmHg 91%
    18:00 +21°C° 0.3 mm 1 m/s 659 mmHg 92%
    19:00 +20°C° 0.3 mm 1 m/s 659 mmHg 93%
    20:00 +20°C° 0.3 mm 1 m/s 659 mmHg 93%
    21:00 +20°C° 0.2 mm 1 m/s 659 mmHg 93%
    22:00 +19°C° 0.2 mm 1 m/s 659 mmHg 93%
    23:00 +19°C° 0.2 mm 1 m/s 659 mmHg 92%
    Voir plus